Burlington, CO

5:23 PM MDT on April 28, 2017 (GMT -0600)
Kit Carson County

Weather History for KITR - July, 2013

Change the Weather History Date:

Saturday, July 20, 2013

  Actual Average Record
Temperature  
Mean Temperature 73 °F 75 °F  
Max Temperature 87 °F 89 °F 105 °F (2005)
Min Temperature 58 °F 61 °F 50 °F (1988)
Cooling Degree Days 6    
Growing Degree Days 22 (Base 50)    
Moisture  
Dew Point 60 °F    
Average Humidity 69    
Maximum Humidity 93    
Minimum Humidity 38    
Precipitation  
Precipitation 0.04 in 0.09 in 2.03 in (1993)
Month to date precipitation 0.66 2.20  
Year to date precipitation 8.25 10.81  
Sea Level Pressure  
Sea Level Pressure 29.90 in    
Wind  
Wind Speed 7 mph (South)    
Max Wind Speed 15 mph    
Max Gust Speed 22 mph    
Visibility 10 miles    
Events Rain , Thunderstorm    
T = Trace of Precipitation, MM = Missing Value Source: NWS Daily Summary

Daily Weather History Graph

Daily Weather History Graph

Search for Another Location

Airport or City:

Trip Planner

Search our weather history database for the weather conditions in past years. The results will help you decide how hot, cold, wet, or windy it might be!

Date:

Astronomy

Jul. 20, 2013 Rise Set
Actual Time 5:39 AM MDT 8:11 PM MDT
Civil Twilight 5:08 AM MDT 8:42 PM MDT
Nautical Twilight 4:29 AM MDT 9:20 PM MDT
Astronomical Twilight 3:46 AM MDT 10:03 PM MDT
Moon 6:16 PM MDT (7/20) 3:21 AM MDT (7/20)
Length of Visible Light 15h 33m
Length of Day
14h 32m
Waxing Gibbous, 94% of the Moon is Illuminated
Jul 20
Waxing Gibbous
Jul 22
Full
Jul 29
Last Quarter
Aug 6
New
Aug 14
First Quarter

Hourly Weather History & Observations

Time (MDT) Temp. Heat Index Dew Point Humidity Pressure Visibility Wind Dir Wind Speed Gust Speed Precip Events Conditions
12:53 AM 64.0 °F - 60.1 °F 87% 29.93 in 10.0 mi SW 3.5 mph - N/A   Overcast
1:53 AM 63.0 °F - 60.1 °F 90% 29.92 in 10.0 mi West 4.6 mph - N/A   Mostly Cloudy
2:53 AM 63.0 °F - 60.1 °F 90% 29.92 in 10.0 mi WNW 3.5 mph - N/A   Overcast
3:53 AM 60.1 °F - 57.9 °F 93% 29.94 in 10.0 mi WSW 5.8 mph - N/A   Clear
4:53 AM 60.1 °F - 57.0 °F 90% 29.94 in 10.0 mi WSW 4.6 mph - N/A   Clear
5:53 AM 59.0 °F - 57.0 °F 93% 29.93 in 10.0 mi WSW 4.6 mph - N/A   Clear
6:53 AM 63.0 °F - 59.0 °F 87% 29.91 in 10.0 mi West 9.2 mph - N/A   Clear
7:53 AM 69.1 °F - 61.0 °F 75% 29.89 in 10.0 mi SW 4.6 mph - N/A   Clear
8:53 AM 73.0 °F - 63.0 °F 71% 29.90 in 10.0 mi South 11.5 mph - N/A   Clear
9:53 AM 75.9 °F - 63.0 °F 64% 29.90 in 10.0 mi SSE 11.5 mph - N/A   Partly Cloudy
10:53 AM 78.1 °F - 63.0 °F 60% 29.90 in 10.0 mi SE 11.5 mph - N/A   Partly Cloudy
11:53 AM 81.0 °F 81.7 °F 61.0 °F 50% 29.88 in 10.0 mi SE 13.8 mph 21.9 mph N/A   Partly Cloudy
12:53 PM 82.0 °F 82.4 °F 60.1 °F 47% 29.87 in 10.0 mi ESE 15.0 mph - N/A   Scattered Clouds
1:53 PM 84.0 °F 83.8 °F 59.0 °F 43% 29.86 in 10.0 mi East 9.2 mph 18.4 mph N/A   Scattered Clouds
2:53 PM 84.0 °F 83.8 °F 59.0 °F 43% 29.84 in 10.0 mi South 9.2 mph - N/A   Mostly Cloudy
3:53 PM 84.9 °F 84.4 °F 59.0 °F 41% 29.81 in 10.0 mi Variable 6.9 mph - N/A   Scattered Clouds
4:53 PM 84.9 °F 84.2 °F 57.9 °F 40% 29.80 in 10.0 mi SSE 6.9 mph - N/A   Clear
5:53 PM 84.0 °F 83.0 °F 55.9 °F 38% 29.81 in 10.0 mi ESE 6.9 mph - N/A   Partly Cloudy
6:53 PM 81.0 °F 81.3 °F 59.0 °F 47% 29.82 in 10.0 mi East 12.7 mph - N/A   Clear
7:53 PM 77.0 °F - 60.1 °F 56% 29.83 in 10.0 mi East 5.8 mph - N/A   Clear
8:53 PM 73.0 °F - 60.1 °F 64% 29.85 in 10.0 mi ESE 5.8 mph - N/A   Clear
9:53 PM 72.0 °F - 64.0 °F 76% 29.89 in 10.0 mi SE 5.8 mph - 0.00 in Rain Light Rain
10:14 PM 71.6 °F - 64.4 °F 78% 30.06 in 10.0 mi South 5.8 mph - 0.01 in Thunderstorm Overcast
10:39 PM 66.2 °F - 60.8 °F 83% 30.02 in 10.0 mi SSE 11.5 mph - 0.02 in Rain , Thunderstorm Light Thunderstorms and Rain
10:53 PM 64.9 °F - 61.0 °F 87% 29.88 in 10.0 mi Calm Calm - 0.04 in Rain , Thunderstorm Light Rain
11:03 PM 66.2 °F - 60.8 °F 83% 30.05 in 10.0 mi West 4.6 mph - 0.00 in   Scattered Clouds
11:53 PM 63.0 °F - 60.1 °F 90% 29.83 in 10.0 mi SSE 9.2 mph - 0.00 in   Clear